Home   Weather   Oceanside   Past weeks

Flag for USA Past Weather in Oceanside, California, USA — Yesterday and Last 2 Weeks

Now
52 °F

Mostly cloudy.


Feels Like: 52 °F
Forecast: 41 / 57 °F
Wind: No wind

Location: Oceanside Weather Reporting Station

Current Time: Feb 22, 2017 at 11:10:14 pm

Latest Report: Feb 22, 2017 at 10:36 pm


Visibility: 10 mi

Pressure: 30.05 "Hg

Humidity: 89%

Dew Point: 49 °F

Location of OceansideLocation

Past Weather in Oceanside — Graph

°F

Oceanside Temperature Yesterday

Maximum temperature yesterday: 70 °F (at 10:52 am)
Minimum temperature yesterday: 49 °F (at 5:52 am)
Average temperature yesterday: 58 °F

High & Low Weather Summary for the Past Weeks

 TemperatureHumidityPressure
High70 °F (Feb 9, 9:52 am)100% (Feb 8, 5:52 am)30.32 "Hg (Feb 8, 5:52 am)
Low44 °F (Feb 13, 4:52 am)58% (Feb 12, 6:52 pm)29.49 "Hg (Feb 17, 5:52 pm)
Average57 °F88%30.01 "Hg
* Reported Feb 7 10:04 pm — Feb 22 9:52 pm, Oceanside, Weather by CustomWeather, © 2017

Note: Actual official high and low records may vary slightly from our data, if they occured in-between our weather recording intervals... More about our weather records

Advertising

Oceanside Weather History for the Previous 24 Hours

Scroll right to see more
 ConditionsComfort  
Time TempWeatherWind HumidityBarometerVisibility
9:52 pm
Wed, Feb 22
50 °FOvercast.No wind89%30.06 "Hg10 mi
8:52 pm50 °FPassing clouds.No wind89%30.06 "Hg10 mi
7:52 pm52 °FClear.No wind83%30.05 "Hg10 mi
6:52 pm55 °FClear.No wind77%30.05 "Hg10 mi
6:00 pm57 °FPartly cloudy.6 mph74%30.05 "Hg10 mi
5:15 pm57 °FBroken clouds.9 mph74%30.05 "Hg10 mi
4:59 pm59 °FPartly sunny.9 mph69%30.05 "Hg10 mi
3:52 pm58 °FSunny.10 mph72%30.05 "Hg10 mi
3:20 pm61 °FScattered clouds.9 mph70%30.06 "Hg10 mi
2:52 pm61 °FPartly sunny.12 mph70%30.06 "Hg10 mi
1:52 pm60 °FBroken clouds.12 mph72%30.07 "Hg10 mi
12:52 pm62 °FSunny.10 mph67%30.08 "Hg10 mi
11:52 am62 °FScattered clouds.10 mph70%30.11 "Hg10 mi
10:52 am62 °FPassing clouds.10 mph70%30.14 "Hg10 mi
9:52 am59 °FPartly sunny.5 mph84%30.14 "Hg8 mi
9:25 am56 °FFog.No wind97%30.16 "Hg5 mi
8:57 am54 °FFog.No wind100%30.15 "Hg3 mi
7:52 am53 °FFog.No wind100%30.14 "Hg0 mi
6:52 am53 °FFog.3 mph100%30.13 "Hg0 mi
5:52 am54 °FFog.3 mph97%30.13 "Hg1 mi
4:52 am53 °FFog.No wind100%30.12 "Hg0 mi
3:52 am52 °FFog.No wind100%30.14 "Hg0 mi
3:36 am51 °FFog.No wind100%30.14 "Hg2 mi
2:57 am50 °FFog.No wind100%30.14 "Hg3 mi
1:52 am53 °FFog.No wind96%30.16 "Hg6 mi
12:59 am54 °FPassing clouds.No wind97%30.18 "Hg8 mi
11:52 pm
Tue, Feb 21
54 °FClear.No wind97%30.19 "Hg8 mi
Weather by CustomWeather, © 2017

See weather overviewHow to use our weather pages